Terug naar catalogus

ATLAS 2AS CENTAUR R/B

ActiefLEO
NORAD 28096·ROCKET BODY·🇺🇸 United States

Gelanceerd Dec 2, 2003 vanaf Vandenberg Space Force Base

Loading…

Volgende Passages (komende 24 uur)

TLE

VersSource: Space-Track

Epoch: Sep 14, 2026, 18:37 UTC

1 28096U 03054B   26257.77608348 -.00000035  00000-0  93908-4 0  9994
2 28096  63.6798 168.9742 0068575  95.4432 265.4422 13.41075577114439

Volg ATLAS 2AS CENTAUR R/B in realtime met AllMySat

Download on the App Store